Weather History for Dumas, TX

Change the Weather History Date:

Friday, November 18, 2011

  Actual Average (KBGD) Record (KBGD)
Temperature  
Mean Temperature 53 °F 48 °F  
Max Temperature 69 °F 60 °F 79 °F (2007)
Min Temperature 37 °F 35 °F 16 °F (1980)
Degree Days  
Heating Degree Days 12 17  
Month to date heating degree days 253  
Since 1 July heating degree days 474  
Cooling Degree Days 0 0  
Month to date cooling degree days 0  
Year to date cooling degree days 1835  
Growing Degree Days 3 (Base 50)    
Moisture  
Dew Point 24 °F    
Average Humidity 36    
Maximum Humidity 60    
Minimum Humidity 17    
Precipitation  
Precipitation 0.00 in 0.03 in 0.57 in (1984)
Month to date precipitation 0.57  
Year to date precipitation 20.68  
Snow  
Snow 0.00 in - - ()
Month to date snowfall  
Since 1 July snowfall  
Since 1 September snowfall  
Snow Depth -    
Sea Level Pressure  
Sea Level Pressure 29.75 in    
Wind  
Wind Speed 24 mph (SW)    
Max Wind Speed 38 mph    
Max Gust Speed 44 mph    
Visibility 10 miles    
Events      
T = Trace of Precipitation, MM = Missing Value Source: NWS Daily Summary

Daily Weather History Graph

Daily Weather History Graph

Search for Another Location

Airport:

Trip Planner

Search our weather history database for the weather conditions in past years. The results will help you decide how hot, cold, wet, or windy it might be!

Date:

Astronomy

Nov. 18, 2011 Rise Set
Actual Time 7:27 AM CST 5:39 PM CST
Civil Twilight 6:59 AM CST 6:06 PM CST
Nautical Twilight 6:28 AM CST 6:37 PM CST
Astronomical Twilight 5:58 AM CST 7:07 PM CST
Moon No Moon Rise 1:13 PM CST (11/18)
Length of Visible Light 11h 06m
Length of Day
10h 12m
Waning Gibbous, 49% of the Moon is Illuminated
Nov 18
Waning Gibbous
Nov 25
New
Dec 2
First Quarter
Dec 10
Full
Dec 17
Last Quarter

Hourly Weather History & Observations

Time (CST) Temp. Windchill Dew Point Humidity Pressure Visibility Wind Dir Wind Speed Gust Speed Precip Events Conditions
12:15 AM 44.6 °F 35.9 °F 23.0 °F 43% 29.93 in 10.0 mi SW 23.0 mph 32.2 mph N/A   Clear
12:35 AM 42.8 °F 33.1 °F 23.0 °F 46% 29.92 in 10.0 mi SW 25.3 mph 31.1 mph N/A   Clear
12:55 AM 42.8 °F 32.5 °F 23.0 °F 46% 29.92 in 10.0 mi SW 28.8 mph 35.7 mph N/A   Clear
1:15 AM 42.8 °F 33.3 °F 23.0 °F 46% 29.92 in 10.0 mi SW 24.2 mph 32.2 mph N/A   Clear
1:35 AM 42.8 °F 33.8 °F 23.0 °F 46% 29.91 in 10.0 mi SSW 21.9 mph 26.5 mph N/A   Clear
1:55 AM 42.8 °F 33.5 °F 23.0 °F 46% 29.91 in 10.0 mi SSW 23.0 mph 31.1 mph N/A   Clear
2:15 AM 42.8 °F 33.1 °F 23.0 °F 46% 29.90 in 10.0 mi SSW 25.3 mph 28.8 mph N/A   Clear
2:35 AM 42.8 °F 32.7 °F 23.0 °F 46% 29.89 in 10.0 mi SSW 27.6 mph 33.4 mph N/A   Clear
2:55 AM 42.8 °F 32.3 °F 23.0 °F 46% 29.88 in 10.0 mi SSW 29.9 mph 33.4 mph N/A   Clear
3:15 AM 42.8 °F 32.1 °F 24.8 °F 49% 29.88 in 10.0 mi SW 31.1 mph 34.5 mph N/A   Clear
3:35 AM 42.8 °F 32.9 °F 24.8 °F 49% 29.88 in 10.0 mi SW 26.5 mph 34.5 mph N/A   Clear
3:55 AM 41.0 °F 30.9 °F 24.8 °F 53% 29.88 in 10.0 mi SW 24.2 mph 31.1 mph N/A   Clear
4:15 AM 41.0 °F 32.2 °F 23.0 °F 49% 29.87 in 10.0 mi SSW 18.4 mph - N/A   Clear
4:35 AM 41.0 °F 31.1 °F 24.8 °F 53% 29.86 in 10.0 mi SSW 23.0 mph - N/A   Clear
4:55 AM 41.0 °F 31.6 °F 24.8 °F 53% 29.86 in 10.0 mi SW 20.7 mph - N/A   Clear
5:35 AM 41.0 °F 31.4 °F 24.8 °F 53% 29.84 in 10.0 mi SW 21.9 mph - N/A   Clear
5:55 AM 41.0 °F 31.9 °F 24.8 °F 53% 29.83 in 10.0 mi SSW 19.6 mph 26.5 mph N/A   Clear
6:35 AM 37.4 °F 26.9 °F 24.8 °F 60% 29.82 in 10.0 mi SSW 20.7 mph - N/A   Clear
6:55 AM 39.2 °F 29.0 °F 24.8 °F 56% 29.82 in 10.0 mi SW 21.9 mph - N/A   Clear
7:15 AM 37.4 °F 27.2 °F 24.8 °F 60% 29.82 in 10.0 mi SW 19.6 mph - N/A   Clear
7:35 AM 37.4 °F 27.2 °F 24.8 °F 60% 29.82 in 10.0 mi SW 19.6 mph - N/A   Clear
8:15 AM 41.0 °F 31.6 °F 26.6 °F 57% 29.82 in 10.0 mi SW 20.7 mph 25.3 mph N/A   Clear
8:55 AM 44.6 °F 36.6 °F 26.6 °F 49% 29.81 in 10.0 mi SW 19.6 mph - N/A   Clear
9:35 AM 48.2 °F - 28.4 °F 46% 29.80 in 10.0 mi SW 26.5 mph 32.2 mph N/A   Clear
9:55 AM 50.0 °F - 28.4 °F 43% 29.79 in 10.0 mi SW 29.9 mph 35.7 mph N/A   Clear
10:15 AM 51.8 °F - 28.4 °F 41% 29.78 in 10.0 mi SW 26.5 mph 36.8 mph N/A   Clear
10:35 AM 55.4 °F - 28.4 °F 36% 29.78 in 10.0 mi SW 29.9 mph 38.0 mph N/A   Clear
10:55 AM 57.2 °F - 28.4 °F 33% 29.78 in 10.0 mi WSW 28.8 mph 39.1 mph N/A   Clear
11:35 AM 60.8 °F - 28.4 °F 29% 29.77 in 10.0 mi SW 31.1 mph 38.0 mph N/A   Clear
11:55 AM 62.6 °F - 28.4 °F 27% 29.75 in 10.0 mi SW 38.0 mph 43.7 mph N/A   Clear
12:15 PM 62.6 °F - 28.4 °F 27% 29.75 in 10.0 mi WSW 33.4 mph 40.3 mph N/A   Clear
12:35 PM 64.4 °F - 26.6 °F 24% 29.73 in 10.0 mi SW 32.2 mph 39.1 mph N/A   Clear
12:55 PM 64.4 °F - 26.6 °F 24% 29.73 in 10.0 mi WSW 28.8 mph 35.7 mph N/A   Clear
1:35 PM 68.0 °F - 26.6 °F 21% 29.70 in 10.0 mi WSW 26.5 mph 35.7 mph N/A   Clear
1:55 PM 68.0 °F - 26.6 °F 21% 29.69 in 10.0 mi SW 29.9 mph 38.0 mph N/A   Clear
2:15 PM 68.0 °F - 26.6 °F 21% 29.68 in 10.0 mi SW 26.5 mph 36.8 mph N/A   Clear
2:35 PM 69.8 °F - 26.6 °F 20% 29.67 in 10.0 mi SW 23.0 mph 34.5 mph N/A   Clear
2:55 PM 69.8 °F - 24.8 °F 18% 29.67 in 10.0 mi SW 28.8 mph 35.7 mph N/A   Clear
3:15 PM 69.8 °F - 23.0 °F 17% 29.66 in 10.0 mi SW 28.8 mph 38.0 mph N/A   Clear
3:55 PM 69.8 °F - 23.0 °F 17% 29.66 in 10.0 mi SW 28.8 mph 38.0 mph N/A   Clear
4:15 PM 69.8 °F - 23.0 °F 17% 29.66 in 10.0 mi SW 26.5 mph 32.2 mph N/A   Clear
4:35 PM 69.8 °F - 23.0 °F 17% 29.65 in 10.0 mi SW 23.0 mph 32.2 mph N/A   Clear
4:55 PM 68.0 °F - 21.2 °F 17% 29.65 in 10.0 mi WSW 23.0 mph 29.9 mph N/A   Clear
5:15 PM 66.2 °F - 21.2 °F 18% 29.65 in 10.0 mi SW 20.7 mph 28.8 mph N/A   Clear
5:55 PM 62.6 °F - 21.2 °F 20% 29.64 in 10.0 mi SW 16.1 mph - N/A   Clear
6:15 PM 60.8 °F - 19.4 °F 20% 29.65 in 10.0 mi SW 13.8 mph - N/A   Clear
6:35 PM 59.0 °F - 19.4 °F 22% 29.65 in 10.0 mi SSW 13.8 mph - N/A   Clear
6:55 PM 53.6 °F - 19.4 °F 26% 29.65 in 10.0 mi SSW 10.4 mph - N/A   Clear
7:15 PM 51.8 °F - 21.2 °F 30% 29.64 in 10.0 mi SSW 13.8 mph - N/A   Clear
7:55 PM 55.4 °F - 21.2 °F 26% 29.64 in 10.0 mi SSW 16.1 mph - N/A   Clear
8:15 PM 55.4 °F - 21.2 °F 26% 29.64 in 10.0 mi SSW 17.3 mph - N/A   Clear
8:55 PM 53.6 °F - 21.2 °F 28% 29.64 in 10.0 mi SW 18.4 mph - N/A   Clear
9:15 PM 53.6 °F - 21.2 °F 28% 29.64 in 10.0 mi SSW 12.7 mph - N/A   Clear
9:35 PM 51.8 °F - 23.0 °F 33% 29.64 in 10.0 mi SW 20.7 mph - N/A   Clear
9:55 PM 53.6 °F - 23.0 °F 30% 29.64 in 10.0 mi SW 21.9 mph - N/A   Clear
10:15 PM 55.4 °F - 23.0 °F 29% 29.64 in 10.0 mi SW 20.7 mph - N/A   Clear
10:35 PM 53.6 °F - 23.0 °F 30% 29.64 in 10.0 mi SW 25.3 mph - N/A   Clear
10:55 PM 53.6 °F - 23.0 °F 30% 29.64 in 10.0 mi SW 23.0 mph - N/A   Clear
11:15 PM 55.4 °F - 23.0 °F 29% 29.64 in 10.0 mi SW 23.0 mph - N/A   Clear
11:35 PM 51.8 °F - 23.0 °F 33% 29.64 in 10.0 mi SW 19.6 mph - N/A   Clear
11:55 PM 53.6 °F - 26.6 °F 35% 29.64 in 10.0 mi SW 25.3 mph 32.2 mph N/A   Clear